Location: Baia de Cri?
(46.1667°N, 22.7167°E)
Time: 08:40:35
(UTC+00:00)

BREEZE-M DEB (TANK) - Pass Details

Date: 15 January 2026
Orbit: 290 x 14651 km, 49.5° (Epoch: 9 February)

Event Time Altitude Azimuth Distance (km) Brightness Sun altitude
Exits shadow 03:45:29 38° 282° (WNW) 2,367 4.9 -24.1°
Maximum altitude 03:48:56 61° 221° (SW) 1,258 3.8 -23.5°
Drops below altitude 10° 03:52:58 10° 140° (SE) 1,987 5.8 -22.8°
Sets 03:54:20 0° 135° (SE) 2,579 6.6 -22.6°
